Temp
-6 -7 -6 -6 -6 -6 -5 -5 -6 -6 -5 -5 -5 -5 -6 -6 -6 -6 -6 -6 -6 -6 -6 -6 -6 -6 -5 -5 -5 -6 -6 -6 -6 -6 -6 -7 -7 -7 -7 -7 -7 -7 -7 -7 -7 -7 -7 -7 -7
-7 -6 -7 -7 -7 -7 -6 -6 -6 -6 -6 -6 -6 -6 -6 -6 -6 -6 -6 -6 -6 -6 -6 -6 -6 -5 -5 -5 -6 -6 -6 -6 -6 -6 -6 -7 -7 -7 -7 -7 -7 -7 -7 -7 -7 -7 -7 -7 -7
-6 -7 -6 -7 -7 -8 -6 -6 -6 -6 -6 -6 -6 -6 -6 -6 -6 -6 -6 -6 -6 -6 -6 -6 -5 -5 -5 -5 -5 -5 -6 -6 -6 -6 -6 -7 -7 -7 -7 -7 -7 -7 -7 -7 -8 -8 -8 -8 -8
-7 -7 -7 -7 -8 -7 -7 -7 -7 -6 -6 -6 -6 -6 -6 -6 -6 -6 -6 -6 -6 -6 -6 -6 -5 -5 -5 -5 -5 -6 -6 -6 -6 -6 -6 -7 -7 -7 -7 -7 -7 -7 -7 -8 -8 -8 -8 -8 -8
-8 -8 -7 -7 -7 -7 -7 -7 -7 -7 -7 -7 -7 -7 -7 -7 -7 -7 -7 -6 -6 -6 -6 -6 -6 -6 -5 -6 -6 -6 -6 -6 -6 -6 -7 -7 -7 -7 -7 -7 -8 -8 -8 -8 -8 -8 -8 -8 -8
-8 -8 -8 -9 -8 -7 -7 -7 -7 -8 -8 -8 -7 -7 -7 -7 -7 -7 -7 -7 -6 -6 -6 -6 -6 -5 -5 -5 -6 -6 -6 -6 -7 -7 -7 -7 -7 -7 -7 -7 -8 -8 -8 -8 -8 -8 -8 -8 -8
-8 -8 -9 -9 -10 -8 -8 -8 -7 -7 -7 -8 -7 -7 -7 -7 -7 -7 -7 -7 -6 -6 -6 -6 -5 -5 -5 -5 -6 -6 -6 -7 -7 -7 -7 -7 -7 -7 -7 -8 -8 -8 -8 -8 -8 -8 -9 -9 -9
-9 -9 -9 -9 -9 -9 -8 -8 -8 -8 -8 -8 -8 -7 -7 -7 -7 -7 -7 -7 -6 -6 -6 -6 -6 -6 -6 -6 -6 -6 -6 -7 -7 -7 -7 -7 -7 -7 -8 -8 -8 -8 -8 -8 -9 -8 -8 -9 -9
-9 -9 -9 -9 -9 -9 -9 -8 -8 -8 -8 -8 -7 -7 -7 -7 -7 -7 -7 -7 -6 -6 -6 -6 -6 -6 -6 -6 -6 -6 -6 -7 -7 -7 -7 -7 -7 -8 -8 -8 -8 -8 -8 -8 -8 -8 -8 -8 -8
-9 -9 -10 -10 -9 -9 -9 -9 -9 -9 -8 -8 -8 -8 -8 -7 -7 -7 -7 -7 -7 -6 -7 -6 -6 -6 -7 -6 -6 -6 -7 -7 -7 -7 -7 -8 -8 -8 -8 -8 -8 -8 -9 -9 -9 -8 -8 -8 -8
-9 -9 -10 -9 -9 -9 -10 -10 -9 -9 -9 -8 -8 -8 -8 -8 -7 -7 -7 -7 -7 -7 -7 -7 -7 -7 -7 -6 -6 -6 -7 -7 -7 -8 -8 -8 -8 -8 -8 -8 -9 -9 -9 -9 -9 -9 -9 -8 -8
-10 -10 -10 -9 -9 -10 -10 -10 -10 -9 -9 -9 -9 -8 -8 -8 -7 -7 -7 -7 -7 -7 -7 -7 -7 -7 -7 -7 -7 -7 -7 -7 -7 -8 -8 -8 -8 -8 -8 -9 -9 -9 -9 -9 -9 -9 -9 -9 -9
-9 -9 -10 -10 -10 -10 -10 -10 -10 -9 -9 -9 -8 -8 -8 -8 -8 -7 -7 -7 -7 -7 -7 -7 -7 -7 -7 -7 -7 -7 -8 -8 -8 -8 -8 -9 -9 -9 -9 -9 -9 -9 -9 -9 -9 -9 -9 -9 -9
-10 -9 -10 -10 -10 -10 -10 -10 -9 -9 -9 -9 -8 -8 -8 -8 -8 -8 -8 -7 -7 -7 -7 -8 -8 -7 -7 -7 -8 -8 -8 -8 -9 -9 -9 -9 -9 -9 -9 -9 -9 -10 -10 -10 -10 -10 -10 -9 -9
-10 -10 -10 -10 -10 -10 -10 -10 -10 -9 -9 -9 -9 -8 -8 -8 -8 -8 -8 -8 -8 -8 -8 -8 -8 -8 -8 -8 -8 -8 -9 -9 -9 -9 -9 -9 -9 -10 -10 -10 -10 -10 -10 -10 -10 -10 -10 -10 -10
-10 -10 -10 -10 -10 -10 -10 -10 -10 -9 -10 -9 -9 -8 -8 -8 -8 -8 -8 -8 -8 -8 -8 -8 -8 -8 -8 -9 -9 -9 -9 -9 -10 -10 -10 -10 -10 -10 -10 -11 -11 -11 -11 -11 -10 -10 -10 -10 -10
-11 -10 -10 -10 -10 -11 -10 -10 -10 -10 -9 -9 -9 -9 -8 -8 -8 -8 -8 -8 -8 -8 -8 -9 -9 -9 -9 -9 -9 -10 -10 -10 -10 -10 -11 -11 -11 -11 -11 -11 -11 -11 -11 -11 -11 -11 -11 -11 -11
-11 -11 -11 -10 -9 -10 -11 -10 -10 -10 -9 -9 -9 -9 -9 -9 -9 -8 -9 -9 -9 -9 -9 -9 -9 -9 -10 -10 -10 -10 -10 -11 -11 -11 -12 -12 -12 -12 -12 -12 -12 -12 -12 -12 -11 -11 -11 -11 -11
-11 -11 -11 -10 -10 -10 -10 -11 -11 -10 -10 -10 -9 -9 -9 -9 -9 -9 -9 -9 -9 -9 -9 -10 -10 -10 -10 -10 -11 -11 -11 -12 -12 -12 -12 -13 -13 -13 -13 -13 -13 -12 -12 -12 -12 -12 -12 -12 -12
-12 -12 -11 -11 -11 -10 -11 -11 -10 -10 -10 -10 -10 -10 -10 -10 -10 -10 -10 -10 -10 -10 -10 -10 -11 -11 -11 -12 -12 -12 -12 -13 -13 -13 -13 -13 -13 -13 -13 -13 -13 -13 -13 -13 -12 -12 -12 -12 -12
-12 -12 -11 -11 -11 -11 -10 -10 -13 -11 -10 -10 -9 -10 -10 -10 -10 -10 -10 -10 -10 -10 -11 -11 -12 -12 -12 -13 -13 -13 -13 -13 -13 -14 -14 -14 -13 -13 -13 -13 -13 -13 -13 -13 -13 -13 -13 -13 -13
-12 -12 -11 -11 -11 -10 -11 -11 -11 -10 -11 -10 -10 -10 -10 -10 -10 -10 -10 -11 -11 -11 -12 -12 -12 -13 -13 -13 -13 -14 -14 -14 -14 -14 -14 -14 -13 -14 -14 -14 -14 -14 -14 -14 -14 -14 -14 -14 -14
-12 -12 -12 -12 -11 -12 -12 -11 -11 -11 -11 -11 -11 -10 -10 -11 -11 -11 -11 -12 -12 -12 -12 -13 -13 -13 -13 -14 -14 -14 -15 -15 -14 -14 -14 -14 -14 -14 -14 -14 -14 -14 -15 -15 -15 -15 -15 -15 -15
-13 -12 -12 -12 -12 -11 -11 -12 -12 -11 -11 -11 -11 -11 -11 -11 -12 -12 -12 -12 -12 -13 -13 -13 -13 -14 -14 -14 -15 -15 -15 -15 -15 -15 -15 -15 -15 -15 -15 -15 -15 -16 -16 -16 -16 -16 -16 -16 -16
-13 -13 -12 -12 -12 -12 -11 -11 -11 -12 -11 -11 -11 -11 -12 -12 -12 -12 -13 -13 -13 -13 -13 -14 -14 -14 -15 -15 -15 -15 -15 -15 -15 -15 -16 -16 -16 -16 -16 -16 -17 -17 -17 -17 -17 -17 -17 -17 -17
-13 -13 -13 -13 -14 -14 -12 -12 -11 -12 -12 -12 -12 -12 -12 -12 -13 -13 -13 -13 -14 -14 -14 -15 -15 -15 -15 -15 -16 -16 -16 -16 -16 -16 -16 -17 -17 -17 -17 -17 -17 -17 -17 -17 -18 -18 -18 -18 -18
-13 -13 -13 -13 -12 -12 -13 -11 -12 -12 -12 -12 -12 -13 -13 -13 -13 -13 -14 -14 -14 -15 -15 -15 -16 -16 -16 -16 -16 -16 -17 -17 -17 -17 -17 -17 -17 -18 -18 -18 -18 -18 -18 -18 -18 -19 -19 -19 -19
-13 -13 -13 -13 -13 -13 -14 -13 -12 -12 -13 -13 -13 -13 -13 -13 -14 -14 -14 -15 -15 -15 -16 -16 -16 -17 -17 -17 -17 -17 -17 -18 -18 -18 -18 -18 -18 -18 -18 -18 -18 -19 -19 -19 -19 -19 -19 -19 -20
-13 -13 -13 -13 -13 -13 -13 -14 -13 -13 -13 -13 -13 -14 -14 -14 -14 -15 -15 -15 -16 -16 -16 -17 -17 -17 -17 -18 -18 -18 -18 -18 -18 -19 -19 -19 -19 -19 -19 -19 -19 -19 -20 -20 -20 -20 -20 -20 -21
-13 -13 -13 -13 -13 -13 -13 -13 -13 -13 -13 -14 -14 -14 -14 -15 -15 -15 -15 -16 -16 -16 -16 -17 -17 -17 -18 -18 -18 -18 -19 -19 -19 -19 -19 -19 -19 -19 -20 -20 -20 -20 -20 -20 -20 -21 -21 -22 -22
Height
5899 5899 5899 5900 5903 5900 5900 5901 5901 5901 5901 5900 5900 5899 5898 5897 5897 5899 5896 5894 5893 5892 5891 5890 5888 5887 5886 5885 5884 5883 5882 5881 5880 5879 5879 5878 5877 5876 5876 5875 5874 5873 5872 5871 5870 5869 5869 5867 5867
5897 5898 5898 5899 5900 5899 5899 5899 5899 5900 5899 5899 5898 5898 5897 5896 5896 5895 5894 5893 5891 5890 5889 5888 5887 5886 5885 5884 5883 5881 5881 5879 5878 5877 5876 5876 5875 5875 5874 5873 5872 5872 5871 5870 5869 5868 5867 5866 5866
5895 5896 5897 5897 5898 5897 5898 5897 5898 5897 5897 5897 5897 5896 5895 5895 5894 5893 5892 5891 5890 5888 5887 5885 5884 5883 5883 5881 5880 5879 5879 5878 5876 5875 5875 5874 5873 5873 5872 5871 5870 5870 5869 5868 5867 5866 5865 5865 5864
5892 5894 5895 5896 5898 5896 5895 5895 5895 5896 5895 5895 5895 5894 5893 5892 5891 5891 5889 5888 5887 5886 5885 5883 5882 5881 5880 5879 5878 5877 5876 5875 5875 5874 5873 5872 5871 5871 5870 5869 5868 5868 5867 5866 5865 5864 5863 5862 5862
5889 5891 5892 5892 5891 5893 5893 5893 5893 5893 5892 5892 5892 5891 5890 5889 5888 5888 5886 5885 5884 5883 5883 5881 5881 5879 5878 5877 5875 5874 5874 5873 5872 5871 5870 5869 5869 5868 5867 5866 5866 5865 5864 5863 5862 5862 5861 5860 5860
5886 5888 5890 5891 5888 5889 5890 5890 5890 5890 5890 5889 5889 5889 5888 5887 5886 5884 5883 5882 5881 5880 5880 5879 5878 5877 5876 5874 5873 5872 5871 5870 5869 5868 5867 5867 5866 5865 5864 5863 5862 5862 5861 5861 5860 5859 5859 5858 5858
5882 5884 5887 5889 5886 5886 5886 5887 5887 5887 5887 5887 5886 5885 5885 5884 5883 5881 5880 5878 5877 5877 5876 5876 5875 5874 5873 5872 5871 5870 5868 5867 5866 5866 5865 5864 5863 5862 5861 5860 5859 5859 5858 5858 5857 5856 5856 5856 5855
5878 5879 5882 5884 5883 5882 5883 5883 5884 5884 5884 5883 5882 5881 5881 5880 5879 5878 5877 5875 5874 5874 5873 5872 5871 5872 5870 5869 5867 5866 5865 5864 5864 5862 5862 5861 5860 5859 5858 5856 5856 5855 5854 5854 5854 5853 5853 5853 5852
5873 5876 5878 5880 5880 5879 5880 5880 5880 5881 5881 5881 5879 5877 5876 5877 5875 5874 5873 5871 5871 5870 5870 5869 5868 5867 5866 5866 5864 5863 5862 5861 5860 5859 5858 5857 5857 5855 5854 5853 5851 5851 5850 5849 5849 5849 5849 5849 5849
5868 5872 5876 5876 5875 5876 5876 5877 5877 5878 5878 5877 5876 5875 5873 5873 5872 5870 5869 5868 5867 5867 5866 5866 5865 5863 5862 5861 5860 5859 5858 5857 5856 5855 5854 5853 5852 5851 5850 5848 5847 5846 5845 5844 5844 5844 5844 5843 5843
5865 5868 5871 5871 5872 5872 5872 5872 5874 5873 5873 5872 5872 5872 5870 5869 5868 5866 5865 5864 5864 5863 5862 5861 5861 5860 5858 5857 5856 5855 5853 5852 5851 5850 5849 5847 5847 5846 5844 5843 5842 5840 5839 5839 5838 5838 5837 5838 5837
5859 5864 5865 5866 5868 5868 5868 5868 5869 5869 5867 5867 5867 5867 5866 5864 5863 5862 5861 5861 5860 5860 5859 5858 5856 5855 5854 5852 5850 5848 5847 5846 5845 5844 5842 5841 5840 5839 5838 5837 5836 5835 5834 5833 5832 5832 5831 5832 5832
5855 5856 5860 5862 5863 5864 5864 5864 5863 5864 5863 5863 5863 5863 5862 5861 5859 5858 5858 5857 5856 5855 5854 5853 5852 5850 5848 5847 5846 5844 5842 5840 5838 5837 5835 5834 5833 5832 5831 5831 5830 5829 5827 5827 5826 5825 5825 5825 5825
5848 5850 5855 5857 5858 5859 5859 5859 5859 5858 5858 5858 5858 5858 5857 5856 5855 5854 5854 5852 5851 5850 5849 5848 5846 5845 5843 5842 5839 5838 5836 5834 5833 5831 5829 5828 5827 5825 5824 5823 5821 5820 5820 5819 5818 5817 5817 5817 5817
5844 5847 5850 5852 5853 5853 5854 5855 5855 5853 5852 5853 5853 5852 5852 5851 5850 5849 5849 5848 5847 5846 5844 5842 5840 5838 5837 5835 5833 5831 5829 5828 5826 5825 5823 5821 5820 5819 5817 5815 5814 5812 5811 5810 5810 5809 5808 5808 5808
5839 5843 5845 5846 5848 5848 5850 5851 5846 5849 5848 5847 5847 5847 5847 5846 5845 5844 5843 5843 5841 5840 5838 5836 5834 5832 5830 5828 5826 5824 5822 5820 5819 5817 5816 5814 5813 5811 5809 5807 5805 5804 5803 5802 5801 5800 5799 5798 5798
5832 5837 5839 5840 5836 5841 5844 5845 5843 5844 5843 5842 5842 5841 5841 5840 5839 5838 5838 5837 5835 5833 5832 5830 5827 5825 5823 5820 5818 5816 5814 5812 5810 5809 5807 5806 5804 5802 5800 5798 5796 5795 5794 5792 5791 5790 5789 5787 5787
5828 5832 5833 5835 5834 5835 5836 5839 5838 5839 5838 5838 5837 5836 5836 5835 5833 5832 5831 5830 5828 5826 5825 5823 5820 5817 5815 5813 5810 5808 5806 5804 5802 5800 5799 5797 5795 5792 5790 5789 5787 5785 5783 5782 5780 5779 5777 5775 5774
5822 5824 5829 5831 5829 5830 5831 5832 5834 5830 5834 5832 5831 5831 5830 5829 5827 5826 5824 5822 5820 5818 5816 5814 5812 5809 5807 5804 5802 5799 5797 5795 5793 5791 5790 5787 5785 5783 5781 5778 5776 5774 5772 5769 5767 5765 5763 5761 5759
5818 5821 5824 5825 5825 5825 5824 5825 5825 5826 5827 5827 5826 5825 5824 5823 5820 5820 5817 5814 5812 5810 5807 5806 5803 5801 5799 5796 5793 5791 5789 5786 5784 5782 5780 5777 5775 5772 5769 5766 5763 5760 5758 5755 5752 5749 5748 5745 5742
5814 5817 5818 5821 5821 5820 5817 5819 5819 5823 5822 5822 5821 5819 5818 5816 5814 5812 5809 5806 5804 5802 5800 5797 5795 5793 5790 5788 5785 5782 5779 5777 5774 5772 5769 5767 5763 5760 5756 5752 5749 5745 5742 5740 5736 5733 5730 5728 5726
5809 5812 5815 5814 5815 5815 5815 5817 5817 5818 5816 5816 5814 5813 5812 5809 5806 5804 5801 5799 5796 5794 5792 5789 5787 5784 5782 5779 5776 5773 5770 5767 5763 5761 5757 5753 5750 5745 5741 5737 5734 5730 5726 5722 5719 5715 5712 5709 5707
5803 5808 5809 5811 5811 5809 5811 5812 5811 5812 5811 5810 5809 5807 5805 5802 5799 5797 5794 5792 5789 5787 5785 5781 5779 5776 5773 5770 5766 5763 5759 5755 5751 5747 5743 5738 5734 5730 5726 5721 5717 5712 5708 5705 5701 5698 5695 5691 5687
5800 5803 5806 5807 5807 5806 5807 5808 5805 5805 5805 5803 5801 5800 5797 5795 5792 5789 5787 5785 5782 5780 5777 5773 5770 5767 5763 5759 5755 5752 5747 5742 5737 5733 5729 5724 5719 5714 5710 5705 5700 5695 5691 5687 5684 5680 5677 5673 5669
5796 5799 5802 5803 5804 5803 5802 5803 5800 5800 5798 5796 5794 5792 5790 5788 5786 5783 5781 5777 5774 5771 5768 5764 5760 5756 5752 5748 5743 5738 5734 5728 5723 5718 5713 5709 5704 5699 5694 5689 5685 5679 5674 5670 5666 5662 5659 5654 5650
5792 5795 5798 5797 5800 5800 5796 5796 5794 5794 5792 5790 5787 5785 5784 5782 5779 5776 5773 5769 5766 5763 5759 5755 5750 5745 5740 5735 5731 5725 5720 5715 5709 5704 5699 5694 5689 5684 5679 5674 5668 5663 5658 5653 5648 5644 5640 5635 5630
5788 5790 5793 5792 5793 5792 5792 5789 5788 5788 5786 5784 5782 5780 5777 5774 5771 5768 5765 5761 5757 5753 5748 5743 5738 5733 5728 5723 5717 5711 5705 5701 5696 5690 5684 5678 5672 5667 5662 5657 5652 5646 5641 5635 5629 5625 5620 5614 5608
5784 5787 5788 5787 5788 5787 5786 5784 5780 5782 5780 5778 5775 5772 5769 5767 5764 5760 5756 5752 5747 5742 5737 5731 5726 5721 5715 5710 5704 5698 5693 5686 5680 5674 5668 5661 5656 5650 5645 5639 5634 5628 5622 5615 5609 5604 5598 5592 5586
5779 5781 5782 5782 5783 5782 5783 5780 5776 5776 5773 5771 5768 5765 5763 5759 5755 5751 5746 5741 5736 5731 5726 5721 5716 5710 5705 5699 5691 5685 5678 5671 5664 5657 5651 5645 5640 5633 5627 5621 5615 5608 5602 5595 5588 5581 5574 5568 5562
5775 5776 5777 5777 5776 5778 5775 5775 5772 5770 5767 5764 5761 5758 5754 5750 5745 5741 5736 5731 5726 5722 5717 5711 5705 5698 5692 5684 5676 5668 5661 5654 5648 5642 5635 5628 5622 5615 5608 5601 5594 5587 5580 5572 5564 5558 5550 5544 5538
Wind_Speed
8 8 7 7 7 9 9 10 10 12 12 12 11 10 10 10 11 11 11 10 12 12 13 14 14 12 12 12 12 12 13 13 13 13 13 13 14 15 14 14 14 14 14 14 14 14 14 13 11
13 12 10 9 10 5 10 10 10 11 11 11 11 10 11 12 12 12 13 13 13 14 15 15 14 13 12 13 12 12 12 12 12 12 13 14 14 15 15 15 15 15 15 15 15 15 15 14 14
18 16 14 13 13 12 14 13 13 11 11 11 12 12 13 14 14 14 15 15 16 16 16 15 14 13 13 13 13 13 13 13 12 13 14 15 16 16 16 16 16 16 16 17 17 17 16 15 15
18 18 18 14 12 13 15 15 16 16 15 14 14 14 15 16 16 16 16 17 17 17 15 14 14 14 14 14 14 14 14 15 15 15 16 17 17 17 17 17 18 18 18 17 17 16 16 16 15
22 19 19 18 19 18 18 17 16 17 17 17 16 16 17 18 19 19 19 18 18 16 15 14 14 14 15 15 15 16 16 17 17 17 17 18 18 18 19 19 20 19 18 17 17 16 15 15 14
24 23 20 13 23 20 21 20 19 17 18 19 18 20 20 20 20 20 21 20 19 16 14 14 14 15 15 16 16 17 17 17 16 16 16 16 17 18 19 19 20 19 19 19 18 18 17 15 14
25 23 21 16 25 22 22 21 19 18 19 20 22 23 22 22 21 21 22 21 19 17 16 15 16 16 17 17 18 17 17 15 16 18 19 19 19 19 20 20 21 21 21 20 19 18 17 16 15
27 26 24 23 25 25 23 22 21 20 18 19 20 23 22 22 22 22 23 22 20 18 17 17 18 18 19 17 18 20 20 19 21 22 21 21 21 21 20 21 21 22 22 20 20 19 19 18 18
31 28 25 25 26 28 24 23 22 22 21 20 21 23 25 23 24 24 23 24 21 20 20 19 20 20 20 20 21 22 22 22 23 23 23 23 22 21 22 22 24 23 24 23 23 23 23 22 22
34 30 25 28 25 27 25 24 22 23 23 23 23 23 23 23 23 23 22 23 23 22 22 21 21 22 22 24 24 24 24 25 26 25 25 25 24 24 24 25 26 26 26 27 27 27 27 26 26
35 31 28 30 27 27 26 25 23 23 25 26 24 22 22 22 22 23 23 24 23 23 24 24 23 24 26 26 26 26 27 27 28 28 28 27 27 27 28 27 27 27 28 28 29 30 30 30 29
37 33 32 30 27 26 26 25 24 24 26 26 25 24 23 22 23 24 24 24 25 24 25 26 26 27 27 28 29 31 31 31 31 31 31 31 30 30 30 29 29 29 28 29 30 31 31 32 32
38 38 34 31 29 25 24 24 25 24 25 24 26 26 25 24 24 24 24 25 26 27 27 28 29 29 30 31 32 32 33 34 34 34 34 34 34 34 33 32 32 32 32 31 31 32 33 33 34
41 40 35 32 29 25 24 23 22 25 26 25 24 25 25 25 26 26 26 27 28 29 31 31 32 32 33 33 33 33 34 34 34 35 35 36 36 35 35 35 35 35 35 35 35 36 36 37 38
42 39 36 35 31 29 28 25 24 25 28 26 25 26 26 26 27 28 28 29 31 32 33 34 34 35 34 34 34 34 34 34 34 35 36 36 36 35 35 35 36 37 37 38 39 39 39 40 41
42 40 38 40 35 29 29 26 30 22 28 28 28 28 28 28 29 29 29 29 31 32 33 34 34 34 34 34 34 34 34 35 35 35 35 35 34 35 36 37 38 39 40 41 42 42 43 44 45
44 41 40 43 41 31 29 27 26 25 29 29 29 30 30 31 31 32 31 30 31 33 33 33 34 34 35 35 35 35 35 34 34 34 34 34 35 37 38 39 40 41 43 44 45 46 47 47 48
42 41 41 39 36 31 29 26 28 24 28 30 30 31 30 31 32 33 33 33 33 34 34 34 36 37 37 36 36 36 35 35 35 35 35 36 38 39 41 42 43 45 47 48 49 50 50 51 52
41 43 40 35 33 35 38 23 29 34 26 30 30 30 31 32 34 34 34 35 35 36 36 37 37 37 36 35 36 36 35 35 35 36 37 39 41 43 45 47 48 49 50 52 53 54 55 55 57
41 38 38 37 32 24 29 29 30 30 28 30 31 32 33 33 34 33 35 37 37 36 36 36 36 36 35 35 35 34 35 36 38 39 42 44 46 47 50 51 53 54 55 56 57 58 59 60 60
40 33 35 34 31 29 35 25 24 23 29 32 34 33 33 33 34 35 36 37 37 37 36 34 35 34 34 34 35 36 38 41 42 44 46 48 50 52 54 56 57 58 58 59 61 62 63 64 63
36 36 32 34 34 34 25 24 26 25 29 31 32 31 32 33 34 35 36 36 35 34 33 34 34 35 36 37 38 40 42 44 47 49 52 54 55 57 58 59 60 61 62 63 64 64 64 66 66
36 30 31 31 32 30 26 28 27 25 26 27 28 30 31 31 32 32 33 33 33 33 34 36 37 38 39 40 42 44 47 50 53 55 57 58 60 61 62 63 64 65 65 65 65 65 66 67 69
32 31 31 31 31 32 29 24 26 26 27 29 30 30 31 31 31 32 32 32 34 35 37 39 40 42 43 45 47 49 52 55 58 60 61 62 64 64 64 64 64 65 65 66 66 67 67 68 69
28 27 28 30 29 28 28 25 30 26 28 29 30 30 29 29 30 32 33 35 37 38 40 42 44 46 48 50 52 55 57 60 62 63 64 64 63 62 62 62 63 64 65 66 67 68 68 69 70
29 29 26 27 14 18 24 26 28 26 27 27 28 30 31 31 33 34 35 37 38 40 42 44 46 49 52 55 57 59 61 62 62 61 61 61 61 61 62 63 65 66 66 66 67 68 70 73 75
25 26 24 26 26 26 25 28 26 24 26 28 29 30 32 33 34 35 37 39 41 43 46 49 51 54 56 58 59 59 59 59 58 59 61 62 64 65 64 64 63 64 66 69 71 73 74 75 77
23 22 22 23 23 23 18 25 30 25 27 29 31 32 33 35 37 39 42 44 46 49 51 53 54 55 55 55 56 57 59 60 62 64 65 64 63 62 63 66 68 70 71 74 76 77 78 81 82
20 19 20 21 21 22 22 22 31 28 30 31 32 34 37 39 42 44 46 48 49 50 51 51 52 53 54 56 59 62 65 66 65 64 63 62 65 67 69 70 72 74 76 78 81 83 85 87 87
17 18 19 20 25 21 24 26 27 29 32 34 36 39 41 43 44 45 47 48 48 49 51 53 54 57 59 62 65 67 66 63 61 63 66 68 70 72 73 75 77 79 81 83 86 88 90 86 83
Wind_Direction
236 242 248 246 240 235 231 236 239 238 237 239 243 247 252 261 269 277 281 279 284 288 288 289 290 293 299 301 301 302 302 300 297 295 295 295 294 294 296 298 299 302 304 307 309 308 307 306 302
242 248 256 260 261 275 242 239 240 241 243 243 246 249 254 260 268 274 277 277 279 280 282 284 288 295 299 299 303 306 302 295 293 291 291 289 290 291 293 295 298 300 301 301 301 301 300 300 298
237 249 253 264 265 245 264 255 248 243 243 244 248 254 263 267 274 277 277 279 280 281 281 286 293 297 301 302 302 301 295 294 292 293 293 292 292 292 293 294 295 296 298 299 298 298 297 296 295
239 244 253 259 268 268 273 266 262 257 251 248 252 256 262 271 276 277 277 278 280 280 282 287 290 294 297 298 299 295 296 294 292 292 290 291 293 294 294 294 294 296 296 297 295 295 293 291 289
249 246 247 253 261 270 273 269 261 261 255 252 253 257 267 276 280 283 283 282 280 279 282 284 287 292 296 296 295 294 293 292 293 291 288 290 291 291 289 289 291 292 291 289 289 288 286 284 284
244 248 249 258 261 265 269 269 266 264 262 262 264 268 273 274 277 281 282 283 280 279 278 282 284 289 292 292 293 293 293 296 296 292 291 291 293 292 292 293 290 289 286 283 282 283 280 278 276
244 245 246 228 256 265 268 268 267 267 270 273 274 275 275 276 278 279 280 280 278 277 279 285 286 289 290 293 295 295 295 290 287 286 290 293 292 292 292 289 291 288 285 282 278 276 272 269 264
246 247 248 253 263 266 269 268 270 271 271 275 279 279 277 279 278 278 280 278 275 275 279 287 288 292 294 294 295 295 293 287 285 285 287 290 292 292 289 289 290 289 287 280 275 269 268 265 263
244 246 251 256 260 267 267 268 269 271 271 272 275 278 282 281 280 279 278 274 271 274 277 283 288 294 292 292 293 293 292 289 286 285 287 290 291 291 290 287 288 287 285 280 272 270 269 267 263
244 248 252 253 260 266 268 267 268 273 275 272 271 275 278 281 279 274 270 269 271 273 279 283 288 290 290 294 292 291 290 288 286 285 287 290 293 293 289 287 286 284 281 277 275 271 269 266 263
241 245 252 256 264 269 269 268 268 271 272 275 274 275 278 280 277 272 269 268 270 275 279 283 286 287 288 287 289 290 291 288 286 285 288 291 292 293 291 288 284 281 279 276 272 271 271 269 267
241 245 249 255 262 269 270 271 271 271 273 274 279 278 278 278 277 272 270 268 269 271 275 280 282 282 283 288 291 291 290 290 289 290 290 290 291 291 289 286 283 280 277 275 274 272 272 272 271
235 243 248 253 260 264 269 269 271 270 271 272 275 277 279 279 277 273 272 272 272 275 277 277 280 282 285 286 286 287 289 289 290 290 290 291 291 291 289 286 283 280 279 277 275 273 273 272 271
234 238 245 250 257 257 266 266 269 267 273 271 273 276 279 280 279 276 274 274 275 278 279 281 282 283 283 283 285 286 286 286 286 286 286 287 287 287 286 284 282 281 280 278 277 276 275 274 272
237 239 240 246 250 252 261 263 269 270 274 274 275 276 278 278 278 279 277 277 277 278 279 281 282 283 283 284 284 284 284 284 283 283 282 283 283 282 281 280 279 278 277 277 277 276 275 274 274
237 242 243 246 246 247 259 260 270 268 270 273 275 277 279 278 279 279 281 282 281 279 279 280 281 282 284 284 285 285 284 284 283 282 282 281 280 279 278 277 277 277 277 277 277 277 276 275 275
234 241 243 251 239 228 249 257 264 274 274 274 276 278 279 281 282 281 282 281 280 280 281 283 284 285 285 285 285 284 284 284 284 283 282 283 282 282 281 281 280 281 281 281 280 279 278 278 278
235 239 247 251 259 232 249 251 264 271 275 276 277 278 279 280 280 282 284 283 283 284 286 286 286 286 286 287 287 285 284 283 283 283 283 283 283 283 283 283 283 283 283 282 281 279 279 278 277
234 242 243 252 256 256 248 259 262 268 267 280 278 279 279 279 280 283 283 285 286 286 287 286 288 287 288 287 285 284 283 283 284 285 284 283 283 283 284 284 284 284 284 283 283 282 282 281 280
233 242 247 249 265 265 261 249 251 263 278 278 278 278 280 280 282 283 285 286 287 288 287 289 287 287 288 286 285 285 285 284 284 284 284 285 285 286 286 286 287 286 286 286 285 284 283 283 283
231 240 247 251 255 256 252 269 274 276 273 276 276 278 280 283 285 286 286 287 287 288 290 289 289 289 287 286 285 285 283 283 284 285 285 286 287 288 288 288 288 288 288 287 287 286 285 284 285
233 238 249 256 259 262 270 275 279 272 269 271 275 279 281 283 284 284 284 285 287 287 287 287 287 285 285 285 284 284 285 286 287 287 288 288 288 289 289 289 290 290 289 288 288 288 287 286 285
230 237 245 251 259 273 279 276 275 275 273 276 278 281 283 283 283 284 284 285 286 288 288 287 287 287 287 287 287 287 288 289 289 291 291 291 291 291 292 292 291 291 290 290 289 289 288 287 286
232 239 247 253 264 269 268 277 278 282 283 282 284 284 284 286 286 287 288 289 288 288 288 288 288 289 289 289 289 289 290 290 291 291 291 292 292 292 291 291 291 290 290 289 289 288 288 288 288
229 239 251 259 260 268 271 272 272 285 285 287 287 288 289 289 289 289 289 290 290 290 290 290 290 290 290 290 290 290 290 290 290 291 291 291 291 291 291 291 290 290 290 290 290 289 290 290 290
240 244 246 250 249 266 272 274 280 282 288 289 289 291 292 292 291 291 291 291 291 290 290 290 290 290 290 290 289 290 290 291 291 291 291 291 291 291 291 291 292 292 291 291 291 291 291 291 291
234 240 245 253 259 266 281 282 285 291 290 291 292 293 294 295 295 295 295 295 294 293 292 292 291 291 291 291 292 291 291 290 291 291 292 292 292 293 293 292 291 291 291 290 291 291 292 291 292
237 238 244 252 264 278 290 288 288 294 294 295 296 297 298 298 299 299 298 296 295 295 295 294 293 293 293 292 292 292 293 293 293 292 292 292 291 291 292 292 292 291 291 291 291 291 291 291 291
238 244 253 263 269 274 280 280 298 298 297 298 300 301 301 301 300 299 299 298 297 296 296 296 296 295 295 295 295 295 294 292 291 291 291 291 291 292 292 292 292 292 292 292 292 292 291 291 291
248 255 260 267 276 278 284 284 289 297 299 302 303 303 302 302 301 300 301 301 302 302 301 300 299 297 297 296 296 293 291 291 291 290 290 291 292 293 293 293 293 292 292 291 291 290 291 293 294